Location: Liberec
(50.7830°N, 15.0500°E)
Time: 07:00:12
(UTC+02:00)

ISS - Visible Passes

Search period start: 18 May 2021 00:00
Search period end: 28 May 2021 00:00
Orbit: 417 x 422 km, 51.6° (Epoch: 18 May)

Date Brightness Start Highest point End Pass type
(mag) Time Alt. Az. Time Alt. Az. Time Alt. Az.
18 May -3.9 01:19:44 10° WNW 01:22:53 74° WSW 01:22:53 74° WSW visible
18 May -3.7 22:55:22 10° W 22:58:45 82° N 23:02:07 10° E visible
19 May -3.8 00:32:16 10° WNW 00:35:39 86° N 00:36:27 49° E visible
19 May -1.2 02:09:11 10° W 02:09:23 11° W 02:09:23 11° W visible
19 May -3.8 22:07:54 10° WSW 22:11:16 86° SSE 22:14:39 10° ENE visible
19 May -3.7 23:44:47 10° W 23:48:09 78° N 23:50:16 21° E visible
20 May -2.1 01:21:39 10° W 01:23:12 24° W 01:23:12 24° W visible
20 May -3.6 22:57:18 10° W 23:00:40 74° N 23:04:02 10° E visible
21 May -3.6 00:34:09 10° WNW 00:37:06 56° WSW 00:37:06 56° WSW visible
21 May -3.6 22:09:48 10° W 22:13:09 76° N 22:16:33 10° E visible
21 May -3.9 23:46:41 10° WNW 23:50:03 80° SSW 23:51:03 42° ESE visible
22 May -1.2 01:23:46 10° W 01:23:59 11° W 01:23:59 11° W visible
22 May -3.8 22:59:12 10° WNW 23:02:34 86° N 23:05:02 17° E visible
23 May -2.3 00:36:07 10° W 00:37:58 25° WSW 00:37:58 25° WSW visible
23 May -3.6 22:11:42 10° W 22:15:04 78° N 22:18:28 10° E visible
23 May -3.5 23:48:34 10° W 23:51:50 46° SSW 23:51:59 46° SSW visible
24 May -3.7 23:01:03 10° WNW 23:04:24 63° SSW 23:06:01 27° SE visible
25 May -1.3 00:38:29 10° W 00:38:57 12° WSW 00:38:57 12° WSW visible
25 May -3.8 22:13:33 10° WNW 22:16:56 80° SSW 22:20:04 12° ESE visible
25 May -2.3 23:50:39 10° W 23:53:00 23° SW 23:53:00 23° SW visible
26 May -2.9 23:02:59 10° W 23:06:05 33° SSW 23:07:05 27° S visible
27 May -3.3 22:15:26 10° W 22:18:40 46° SSW 22:21:13 15° SE visible
27 May -1.2 23:53:43 10° WSW 23:54:09 11° WSW 23:54:09 11° WSW visible
